Flag for Russia Weather past 2 weeks in Sochi, Russia

64 °F

Passing clouds.

Feels Like: 64 °F
Forecast: 57 / 75 °F
Wind: 6 mph from Northeast

Location: Adler

Current Time: Oct 4, 2015 at 11:04:08 PM

Latest Report: Oct 4, 2015 at 10:30 PM

Visibility: N/A

Pressure: 30.15 "Hg

Humidity: 83%

Dew point: 59 °F

Location of SochiLocation

Historic Weather in Sochi — Graph


Sochi temperature yesterday

Maximum temperature yesterday: 75 °F (at 12:00 PM)
Minimum temperature yesterday: 61 °F (at 4:30 PM)
Average temperature yesterday: 66 °F

Past Weeks' High & Low Weather Summary

High88 °F (Sep 24, 10:30 AM)94% (Oct 1, 8:30 AM)30.24 "Hg (Oct 1, 8:30 AM)
Low59 °F (Oct 4, 4:30 AM)28% (Sep 28, 10:30 AM)29.71 "Hg (Sep 21, 4:30 AM)
Average73 °F65%29.96 "Hg
* Reported Sep 19 9:00 PM — Oct 4 9:30 PM, Sochi, Weather by CustomWeather, © 2015

Note: Actual official high and low records may vary slightly from our data, if they occured in-between our weather recording intervals... More about our weather records


Sochi weather history for previous 24 hours

Time TempWeatherWind HumidityBarometerVisibility
9:30 PM
Sun, Oct 4
64 °FPassing clouds.6 mph88%30.15 "HgN/A
9:00 PM64 °FPassing clouds.3 mph88%30.15 "HgN/A
8:30 PM64 °FPassing clouds.3 mph88%30.15 "HgN/A
8:00 PM64 °FPassing clouds.6 mph88%30.15 "HgN/A
7:30 PM64 °FPassing clouds.3 mph94%30.15 "HgN/A
7:00 PM66 °FPassing clouds.3 mph88%30.15 "HgN/A
6:30 PM68 °FPassing clouds.1 mph83%30.15 "HgN/A
6:00 PM68 °FPassing clouds.3 mph83%30.15 "HgN/A
5:30 PM70 °FScattered clouds.3 mph78%30.18 "HgN/A
5:00 PM72 °FBroken clouds.3 mph73%30.18 "HgN/A
4:30 PM72 °FBroken clouds.3 mph73%30.18 "HgN/A
4:00 PM73 °FSprinkles. Partly sunny.3 mph69%30.18 "Hg6 mi
3:30 PM73 °FScattered clouds.3 mph65%30.18 "HgN/A
3:00 PM75 °FScattered clouds.1 mph61%30.18 "HgN/A
2:30 PM73 °FPartly sunny.3 mph65%30.21 "HgN/A
2:00 PM72 °FThundershowers. Scattered clouds.3 mph69%30.21 "HgN/A
1:30 PM72 °FThundershowers. Partly sunny.6 mph69%30.21 "HgN/A
1:00 PM73 °FBroken clouds.8 mph65%30.21 "HgN/A
12:30 PM75 °FBroken clouds.6 mph57%30.21 "HgN/A
12:00 PM77 °FBroken clouds.6 mph54%30.21 "HgN/A
11:30 AM73 °FScattered clouds.8 mph61%30.24 "HgN/A
11:00 AM73 °FScattered clouds.3 mph61%30.24 "HgN/A
10:30 AM75 °FPassing clouds.3 mph57%30.24 "HgN/A
10:00 AM72 °FPassing clouds.3 mph57%30.24 "HgN/A
9:30 AM68 °FPassing clouds.8 mph60%30.24 "HgN/A
9:00 AM66 °FPassing clouds.10 mph64%30.24 "HgN/A
8:30 AM63 °FPassing clouds.13 mph68%30.24 "HgN/A
8:00 AM63 °FScattered clouds.13 mph68%30.24 "HgN/A
6:30 AM59 °FPassing clouds.10 mph77%30.21 "HgN/A
6:00 AM59 °FPassing clouds.13 mph77%30.21 "HgN/A
5:30 AM59 °FPassing clouds.13 mph77%30.21 "HgN/A
5:00 AM61 °FPassing clouds.10 mph72%30.21 "HgN/A
4:30 AM59 °FPassing clouds.10 mph77%30.21 "HgN/A
4:00 AM61 °FPassing clouds.13 mph72%30.21 "HgN/A
3:30 AM61 °FPassing clouds.13 mph72%30.21 "HgN/A
3:00 AM61 °FPassing clouds.10 mph77%30.21 "HgN/A
2:30 AM61 °FPassing clouds.8 mph77%30.21 "HgN/A
2:00 AM61 °FPassing clouds.10 mph77%30.21 "HgN/A
1:30 AM61 °FPassing clouds.13 mph77%30.21 "HgN/A
12:30 AM61 °FPassing clouds.13 mph77%30.21 "HgN/A
12:00 AM61 °FPassing clouds.13 mph77%30.21 "HgN/A
11:30 PM
Sat, Oct 3
61 °FPassing clouds.10 mph83%30.21 "HgN/A
11:00 PM61 °FPassing clouds.10 mph83%30.21 "HgN/A
Weather by CustomWeather, © 2015

See weather overviewHow to use our weather pages